User: anonymous   Login
Location: Cosy Dell
(34.2789°N, 117.4537°W)
Time: 13:27:27
(UTC+00:00)
Language:

Hubble Space Telescope - Orbit

View from above orbital plane
View from above orbital plane
View from above satellite
View from above satellite

Ground track
Ground track

The orbit data is extracted from the following two-line orbital elements,

1 20580U 90037B   20271.72151993 +.00000593 +00000-0 +25069-4 0  9996
2 20580 028.4709 003.2323 0002890 110.0966 022.1006 15.09437678471421
Epoch (UTC): 27 September 2020 17:18:59
Eccentricity: 0.0002890
inclination: 28.4709°
perigee height: 536 km
apogee height: 540 km
right ascension of ascending node: 3.2323°
argument of perigee: 110.0966°
revolutions per day: 15.09437678
mean anomaly at epoch: 22.1006°
orbit number at epoch: 47142

The dashed part of the orbit path shows where the satellite is in the earth's shadow,  

DLR